{"data":{"norad_id":43189,"epoch":"2026-09-20T01:33:06.813216Z","epoch_age_seconds":89787,"freshness":"FRESH","line1":"1 43189U 18014K   26263.06466219  .00003131  00000+0  15999-3 0  9995","line2":"2 43189  97.5281 167.5615 0011177  45.6933 314.5215 15.17373649471691","mean_motion":15.17373649,"eccentricity":0.0011177,"inclination_deg":97.5281,"raan_deg":167.5615,"arg_perigee_deg":45.6933,"mean_anomaly_deg":314.5215,"bstar":0.00015999,"rev_number":47169,"period_min":94.900817669333,"perigee_km":506.07866276307,"apogee_km":521.48485795998,"semimajor_km":6891.9187603615,"source":"CELESTRAK","updated_at":"2026-09-20T09:00:14.308071Z"}}